Change the Weather History Date:

Monday, November 15, 2010

  Actual Average Record
Temperature  
Mean Temperature 54 °F 38 °F  
Max Temperature 61 °F 49 °F 69 °F (2008)
Min Temperature 46 °F 26 °F -17 °F (2014)
Degree Days  
Heating Degree Days 11 28  
Month to date heating degree days 316 376  
Since 1 July heating degree days 1235 1321  
Cooling Degree Days 0 0  
Month to date cooling degree days 0 0  
Year to date cooling degree days 161 222  
Growing Degree Days 4 (Base 50)    
Moisture  
Dew Point 41 °F    
Average Humidity 65    
Maximum Humidity 77    
Minimum Humidity 53    
Precipitation  
Precipitation 0.00 in 0.03 in 0.80 in (1966)
Month to date precipitation 0.38 0.46  
Year to date precipitation 9.16 7.24  
Sea Level Pressure  
Sea Level Pressure 30.17 in    
Wind  
Wind Speed 10 mph (WNW)    
Max Wind Speed 29 mph    
Max Gust Speed 38 mph    
Visibility 10 miles    
Events      
T = Trace of Precipitation, MM = Missing Value Source: NWS Daily Summary

Daily Weather History Graph

Daily Weather History Graph

Search for Another Location

Airport or City:

Trip Planner

Search our weather history database for the weather conditions in past years. The results will help you decide how hot, cold, wet, or windy it might be!

Date:

Astronomy

Nov. 15, 2010 Rise Set
Actual Time 7:00 AM PST 4:37 PM PST
Civil Twilight 6:29 AM PST 5:08 PM PST
Nautical Twilight 5:53 AM PST 5:44 PM PST
Astronomical Twilight 5:19 AM PST 6:18 PM PST
Moon 1:33 PM PST (11/15) 12:58 AM PST (11/15)
Length of Visible Light 10h 39m
Length of Day
9h 37m
Waxing Gibbous, 70% of the Moon is Illuminated
Nov 15
Waxing Gibbous
Nov 21
Full
Nov 28
Last Quarter
Dec 5
New
Dec 13
First Quarter

Hourly Weather History & Observations

Time (PST) Temp. Dew Point Humidity Pressure Visibility Wind Dir Wind Speed Gust Speed Precip Events Conditions
12:56 AM 50.0 °F 42.1 °F 74% 30.26 in 10.0 mi WNW 5.8 mph - N/A   Mostly Cloudy
1:56 AM 50.0 °F 42.1 °F 74% 30.27 in 10.0 mi Calm Calm - N/A   Overcast
2:56 AM 50.0 °F 41.0 °F 71% 30.27 in 10.0 mi NW 8.1 mph - N/A   Mostly Cloudy
3:56 AM 48.0 °F 41.0 °F 77% 30.27 in 10.0 mi NNW 5.8 mph - N/A   Partly Cloudy
4:56 AM 48.9 °F 41.0 °F 74% 30.27 in 10.0 mi WNW 5.8 mph - N/A   Mostly Cloudy
5:56 AM 48.9 °F 39.9 °F 71% 30.28 in 10.0 mi NW 6.9 mph - N/A   Partly Cloudy
6:56 AM 48.0 °F 39.0 °F 71% 30.27 in 10.0 mi NW 5.8 mph - N/A   Mostly Cloudy
7:56 AM 50.0 °F 39.0 °F 66% 30.28 in 10.0 mi WNW 6.9 mph - N/A   Mostly Cloudy
8:56 AM 53.1 °F 41.0 °F 64% 30.26 in 10.0 mi West 11.5 mph - N/A   Mostly Cloudy
9:56 AM 54.0 °F 42.1 °F 64% 30.26 in 10.0 mi WNW 5.8 mph - N/A   Mostly Cloudy
10:56 AM 55.9 °F 42.1 °F 60% 30.23 in 10.0 mi West 16.1 mph 23.0 mph N/A   Mostly Cloudy
11:56 AM 57.9 °F 44.1 °F 60% 30.21 in 10.0 mi WNW 9.2 mph - N/A   Overcast
12:56 PM 57.9 °F 44.1 °F 60% 30.19 in 10.0 mi WSW 5.8 mph - N/A   Overcast
1:56 PM 59.0 °F 43.0 °F 55% 30.15 in 10.0 mi WNW 18.4 mph 25.3 mph N/A   Mostly Cloudy
2:56 PM 55.9 °F 43.0 °F 62% 30.16 in 10.0 mi WNW 17.3 mph 31.1 mph N/A   Clear
3:56 PM 55.0 °F 43.0 °F 64% 30.14 in 10.0 mi WNW 15.0 mph 21.9 mph N/A   Mostly Cloudy
4:56 PM 52.0 °F 42.1 °F 69% 30.12 in 10.0 mi WNW 11.5 mph - N/A   Clear
5:56 PM 53.1 °F 39.9 °F 61% 30.12 in 10.0 mi West 9.2 mph - N/A   Partly Cloudy
6:56 PM 52.0 °F 39.0 °F 61% 30.09 in 10.0 mi West 9.2 mph 21.9 mph N/A   Mostly Cloudy
7:56 PM 52.0 °F 37.9 °F 59% 30.05 in 10.0 mi West 15.0 mph 25.3 mph N/A   Scattered Clouds
8:56 PM 51.1 °F 37.0 °F 59% 30.06 in 10.0 mi Variable 4.6 mph - N/A   Overcast
9:56 PM 51.1 °F 36.0 °F 56% 30.03 in 10.0 mi West 19.6 mph 29.9 mph N/A   Clear
10:56 PM 50.0 °F 37.0 °F 61% 29.98 in 10.0 mi WSW 16.1 mph 27.6 mph N/A   Mostly Cloudy
11:56 PM 50.0 °F 36.0 °F 59% 29.96 in 10.0 mi WSW 12.7 mph 24.2 mph N/A   Clear